StationID,Date,MaxTemp,MinTemp,Precipitation,Snowfall,SnowDepth
"USC00107402","1948-08-01",,,0.00,0.00,0.00
"USC00107402","1948-08-02",,,38.00,0.00,0.00
"USC00107402","1948-08-03",,,0.00,0.00,0.00
"USC00107402","1948-08-04",,,0.00,0.00,0.00
"USC00107402","1948-08-05",,,0.00,0.00,0.00
"USC00107402","1948-08-06",,,0.00,0.00,0.00
"USC00107402","1948-08-07",,,0.00,0.00,0.00
"USC00107402","1948-08-08",,,0.00,0.00,0.00
"USC00107402","1948-08-09",,,0.00,0.00,0.00
"USC00107402","1948-08-10",,,0.00,0.00,0.00
"USC00107402","1948-08-11",,,0.00,0.00,0.00
"USC00107402","1948-08-12",,,0.00,0.00,0.00
"USC00107402","1948-08-13",,,25.00,0.00,0.00
"USC00107402","1948-08-14",,,0.00,0.00,0.00
"USC00107402","1948-08-15",,,0.00,0.00,0.00
"USC00107402","1948-08-16",,,0.00,0.00,0.00
"USC00107402","1948-08-17",,,0.00,0.00,0.00
"USC00107402","1948-08-18",,,0.00,0.00,0.00
"USC00107402","1948-08-19",,,8.00,0.00,0.00
"USC00107402","1948-08-20",,,0.00,0.00,0.00
"USC00107402","1948-08-21",,,0.00,0.00,0.00
"USC00107402","1948-08-22",,,0.00,0.00,0.00
"USC00107402","1948-08-23",,,112.00,0.00,0.00
"USC00107402","1948-08-24",,,8.00,0.00,0.00
"USC00107402","1948-08-25",,,0.00,0.00,0.00
"USC00107402","1948-08-26",,,0.00,0.00,0.00
"USC00107402","1948-08-27",,,0.00,0.00,0.00
"USC00107402","1948-08-28",,,0.00,0.00,0.00
"USC00107402","1948-08-29",,,0.00,0.00,0.00
"USC00107402","1948-08-30",,,0.00,0.00,0.00
"USC00107402","1948-08-31",,,0.00,0.00,0.00
"USC00107402","1948-09-01",,,0.00,0.00,0.00
"USC00107402","1948-09-02",,,0.00,0.00,0.00
"USC00107402","1948-09-03",,,0.00,0.00,0.00
"USC00107402","1948-09-04",,,0.00,0.00,0.00
"USC00107402","1948-09-05",,,0.00,0.00,0.00
"USC00107402","1948-09-06",,,0.00,0.00,0.00
"USC00107402","1948-09-07",,,0.00,0.00,0.00
"USC00107402","1948-09-08",,,0.00,0.00,0.00
"USC00107402","1948-09-09",,,0.00,0.00,0.00
"USC00107402","1948-09-10",,,0.00,0.00,0.00
"USC00107402","1948-09-11",,,0.00,0.00,0.00
"USC00107402","1948-09-12",,,0.00,0.00,0.00
"USC00107402","1948-09-13",,,0.00,0.00,0.00
"USC00107402","1948-09-14",,,0.00,0.00,0.00
"USC00107402","1948-09-15",,,0.00,0.00,0.00
"USC00107402","1948-09-16",,,0.00,0.00,0.00
"USC00107402","1948-09-17",,,0.00,0.00,0.00
"USC00107402","1948-09-18",,,18.00,0.00,0.00
"USC00107402","1948-09-19",,,0.00,0.00,0.00
"USC00107402","1948-09-20",,,0.00,0.00,0.00
"USC00107402","1948-09-21",,,0.00,0.00,0.00
"USC00107402","1948-09-22",,,71.00,0.00,0.00
"USC00107402","1948-09-23",,,0.00,0.00,0.00
"USC00107402","1948-09-24",,,0.00,0.00,0.00
"USC00107402","1948-09-25",,,0.00,0.00,0.00
"USC00107402","1948-09-26",,,160.00,0.00,0.00
"USC00107402","1948-09-27",,,30.00,0.00,0.00
"USC00107402","1948-09-28",,,0.00,0.00,0.00
"USC00107402","1948-09-29",,,0.00,0.00,0.00
"USC00107402","1948-09-30",,,0.00,0.00,0.00
"USC00107402","1948-10-01",,,0.00,0.00,0.00
"USC00107402","1948-10-02",,,0.00,0.00,0.00
"USC00107402","1948-10-03",,,0.00,0.00,0.00
"USC00107402","1948-10-04",,,127.00,0.00,0.00
"USC00107402","1948-10-05",,,10.00,0.00,0.00
"USC00107402","1948-10-06",,,0.00,0.00,0.00
"USC00107402","1948-10-07",,,0.00,0.00,0.00
"USC00107402","1948-10-08",,,0.00,0.00,0.00
"USC00107402","1948-10-09",,,0.00,0.00,0.00
"USC00107402","1948-10-10",,,0.00,0.00,0.00
"USC00107402","1948-10-11",,,0.00,0.00,0.00
"USC00107402","1948-10-12",,,0.00,0.00,0.00
"USC00107402","1948-10-13",,,0.00,0.00,0.00
"USC00107402","1948-10-14",,,0.00,0.00,0.00
"USC00107402","1948-10-15",,,0.00,0.00,0.00
"USC00107402","1948-10-16",,,0.00,0.00,0.00
"USC00107402","1948-10-17",,,0.00,0.00,0.00
"USC00107402","1948-10-18",,,0.00,0.00,0.00
"USC00107402","1948-10-19",,,0.00,0.00,0.00
"USC00107402","1948-10-20",,,0.00,0.00,0.00
"USC00107402","1948-10-21",,,0.00,0.00,0.00
"USC00107402","1948-10-22",,,0.00,0.00,0.00
"USC00107402","1948-10-23",,,0.00,0.00,0.00
"USC00107402","1948-10-24",,,13.00,0.00,0.00
"USC00107402","1948-10-25",,,0.00,0.00,0.00
"USC00107402","1948-10-26",,,0.00,0.00,0.00
"USC00107402","1948-10-27",,,0.00,0.00,0.00
"USC00107402","1948-10-28",,,0.00,0.00,0.00
"USC00107402","1948-10-29",,,0.00,0.00,0.00
"USC00107402","1948-10-30",,,0.00,0.00,0.00
"USC00107402","1948-10-31",,,69.00,0.00,0.00
"USC00107402","1948-11-01",,,30.00,30.00,0.00
"USC00107402","1948-11-02",,,20.00,0.00,0.00
"USC00107402","1948-11-03",,,218.00,0.00,0.00
"USC00107402","1948-11-04",,,0.00,0.00,0.00
"USC00107402","1948-11-05",,,28.00,76.00,0.00
"USC00107402","1948-11-06",,,0.00,0.00,0.00
"USC00107402","1948-11-07",,,74.00,152.00,0.00
"USC00107402","1948-11-08",,,0.00,0.00,0.00
"USC00107402","1948-11-09",,,0.00,0.00,0.00
"USC00107402","1948-11-10",,,0.00,0.00,0.00
"USC00107402","1948-11-11",,,0.00,0.00,0.00
"USC00107402","1948-11-12",,,0.00,0.00,0.00
"USC00107402","1948-11-13",,,30.00,0.00,0.00
"USC00107402","1948-11-14",,,0.00,0.00,0.00
"USC00107402","1948-11-15",,,10.00,0.00,0.00
"USC00107402","1948-11-16",,,41.00,0.00,0.00
"USC00107402","1948-11-17",,,0.00,0.00,0.00
"USC00107402","1948-11-18",,,0.00,0.00,0.00
"USC00107402","1948-11-19",,,41.00,178.00,0.00
"USC00107402","1948-11-20",,,81.00,81.00,0.00
"USC00107402","1948-11-21",,,20.00,0.00,0.00
"USC00107402","1948-11-22",,,3.00,0.00,0.00
"USC00107402","1948-11-23",,,157.00,0.00,0.00
"USC00107402","1948-11-24",,,36.00,0.00,0.00
"USC00107402","1948-11-25",,,81.00,0.00,0.00
"USC00107402","1948-11-26",,,3.00,0.00,0.00
"USC00107402","1948-11-27",,,0.00,0.00,0.00
"USC00107402","1948-11-28",,,81.00,0.00,0.00
"USC00107402","1948-11-29",,,0.00,0.00,0.00
"USC00107402","1948-11-30",,,58.00,102.00,0.00
"USC00107402","1948-12-01",,,8.00,,
"USC00107402","1948-12-02",,,203.00,254.00,
"USC00107402","1948-12-03",,,58.00,,
"USC00107402","1948-12-04",,,0.00,,
"USC00107402","1948-12-05",,,8.00,,
"USC00107402","1948-12-06",,,71.00,,
"USC00107402","1948-12-07",,,142.00,254.00,508.00
"USC00107402","1948-12-08",,,0.00,0.00,
"USC00107402","1948-12-09",,,119.00,,
"USC00107402","1948-12-10",,,102.00,51.00,660.00
"USC00107402","1948-12-11",,,10.00,13.00,660.00
"USC00107402","1948-12-12",,,91.00,51.00,660.00
"USC00107402","1948-12-13",,,0.00,0.00,
"USC00107402","1948-12-14",,,25.00,,
"USC00107402","1948-12-15",,,25.00,,508.00
"USC00107402","1948-12-16",,,0.00,0.00,508.00
"USC00107402","1948-12-17",,,0.00,0.00,508.00
"USC00107402","1948-12-18",,,0.00,0.00,508.00
"USC00107402","1948-12-19",,,107.00,76.00,584.00
"USC00107402","1948-12-20",,,13.00,0.00,508.00
"USC00107402","1948-12-21",,,0.00,0.00,508.00
"USC00107402","1948-12-22",,,0.00,0.00,457.00
"USC00107402","1948-12-23",,,0.00,0.00,457.00
"USC00107402","1948-12-24",,,0.00,0.00,457.00
"USC00107402","1948-12-25",,,0.00,0.00,457.00
"USC00107402","1948-12-26",,,0.00,0.00,457.00
"USC00107402","1948-12-27",,,0.00,0.00,457.00
"USC00107402","1948-12-28",,,0.00,0.00,457.00
"USC00107402","1948-12-29",,,147.00,152.00,610.00
"USC00107402","1948-12-30",,,0.00,0.00,610.00
"USC00107402","1948-12-31",,,38.00,51.00,635.00
"USC00107402","1949-01-01",,,145.00,178.00,838.00
"USC00107402","1949-01-02",,,0.00,0.00,
"USC00107402","1949-01-03",,,0.00,0.00,
"USC00107402","1949-01-04",,,0.00,0.00,
"USC00107402","1949-01-05",,,0.00,0.00,
"USC00107402","1949-01-06",,,0.00,0.00,
"USC00107402","1949-01-07",,,51.00,0.00,762.00
"USC00107402","1949-01-08",,,0.00,0.00,
"USC00107402","1949-01-09",,,0.00,0.00,
"USC00107402","1949-01-10",,,0.00,0.00,
"USC00107402","1949-01-11",,,0.00,0.00,
"USC00107402","1949-01-12",,,0.00,0.00,
"USC00107402","1949-01-13",,,0.00,0.00,
"USC00107402","1949-01-14",,,0.00,0.00,
"USC00107402","1949-01-15",,,0.00,0.00,
"USC00107402","1949-01-16",,,0.00,0.00,
"USC00107402","1949-01-17",,,23.00,25.00,
"USC00107402","1949-01-18",,,0.00,0.00,
"USC00107402","1949-01-19",,,0.00,0.00,762.00
"USC00107402","1949-01-20",,,0.00,0.00,
"USC00107402","1949-01-21",,,13.00,13.00,
"USC00107402","1949-01-22",,,10.00,10.00,
"USC00107402","1949-01-23",,,0.00,0.00,
"USC00107402","1949-01-24",,,0.00,0.00,
"USC00107402","1949-01-25",,,0.00,0.00,
"USC00107402","1949-01-26",,,0.00,0.00,762.00
"USC00107402","1949-01-27",,,51.00,51.00,
"USC00107402","1949-01-28",,,0.00,0.00,787.00
"USC00107402","1949-01-29",,,0.00,0.00,787.00
"USC00107402","1949-01-30",,,0.00,0.00,787.00
"USC00107402","1949-01-31",,,25.00,25.00,787.00
"USC00107402","1949-02-01",,,0.00,0.00,787.00
"USC00107402","1949-02-02",,,0.00,0.00,
"USC00107402","1949-02-03",,,0.00,0.00,
"USC00107402","1949-02-04",,,130.00,152.00,
"USC00107402","1949-02-05",,,0.00,0.00,
"USC00107402","1949-02-06",,,191.00,254.00,1143.00
"USC00107402","1949-02-07",,,0.00,0.00,
"USC00107402","1949-02-08",,,46.00,51.00,
"USC00107402","1949-02-09",,,56.00,51.00,
"USC00107402","1949-02-10",,,401.00,152.00,1270.00
"USC00107402","1949-02-11",,,0.00,0.00,1219.00
"USC00107402","1949-02-12",,,0.00,0.00,
"USC00107402","1949-02-13",,,46.00,51.00,
"USC00107402","1949-02-14",,,0.00,0.00,
"USC00107402","1949-02-15",,,0.00,0.00,
"USC00107402","1949-02-16",,,43.00,0.00,914.00
"USC00107402","1949-02-17",,,140.00,0.00,
"USC00107402","1949-02-18",,,30.00,0.00,
"USC00107402","1949-02-19",,,81.00,102.00,762.00
"USC00107402","1949-02-20",,,0.00,0.00,
"USC00107402","1949-02-21",,,84.00,0.00,610.00
"USC00107402","1949-02-22",,,191.00,0.00,508.00
"USC00107402","1949-02-23",,,0.00,0.00,508.00
"USC00107402","1949-02-24",,,0.00,0.00,
"USC00107402","1949-02-25",,,0.00,0.00,
"USC00107402","1949-02-26",,,0.00,0.00,457.00
"USC00107402","1949-02-27",,,0.00,0.00,
"USC00107402","1949-02-28",,,0.00,0.00,203.00
"USC00107402","1949-03-01",,,0.00,0.00,0.00
"USC00107402","1949-03-02",,,0.00,0.00,0.00
"USC00107402","1949-03-03",,,0.00,0.00,0.00
"USC00107402","1949-03-04",,,0.00,0.00,0.00
"USC00107402","1949-03-05",,,0.00,0.00,0.00
"USC00107402","1949-03-06",,,0.00,0.00,0.00
"USC00107402","1949-03-07",,,0.00,0.00,0.00
"USC00107402","1949-03-08",,,18.00,0.00,0.00
"USC00107402","1949-03-09",,,0.00,0.00,0.00
"USC00107402","1949-03-10",,,0.00,0.00,0.00
"USC00107402","1949-03-11",,,0.00,0.00,0.00
"USC00107402","1949-03-12",,,0.00,0.00,0.00
"USC00107402","1949-03-13",,,56.00,0.00,0.00
"USC00107402","1949-03-14",,,0.00,0.00,0.00
"USC00107402","1949-03-15",,,20.00,0.00,0.00
"USC00107402","1949-03-16",,,43.00,0.00,0.00
"USC00107402","1949-03-17",,,5.00,0.00,0.00
"USC00107402","1949-03-18",,,0.00,0.00,0.00
"USC00107402","1949-03-19",,,112.00,0.00,0.00
"USC00107402","1949-03-20",,,15.00,0.00,0.00
"USC00107402","1949-03-21",,,0.00,0.00,0.00
"USC00107402","1949-03-22",,,0.00,0.00,0.00
"USC00107402","1949-03-23",,,0.00,0.00,0.00
"USC00107402","1949-03-24",,,0.00,0.00,0.00
"USC00107402","1949-03-25",,,38.00,0.00,0.00
"USC00107402","1949-03-26",,,51.00,0.00,0.00
"USC00107402","1949-03-27",,,0.00,0.00,0.00
"USC00107402","1949-03-28",,,0.00,0.00,0.00
"USC00107402","1949-03-29",,,0.00,0.00,0.00
"USC00107402","1949-03-30",,,25.00,0.00,0.00
"USC00107402","1949-03-31",,,0.00,0.00,0.00
"USC00107402","1949-04-01",,,0.00,0.00,0.00
"USC00107402","1949-04-02",,,0.00,0.00,0.00
"USC00107402","1949-04-03",,,0.00,0.00,0.00
"USC00107402","1949-04-04",,,0.00,0.00,0.00
"USC00107402","1949-04-05",,,0.00,0.00,0.00
"USC00107402","1949-04-06",,,0.00,0.00,0.00
"USC00107402","1949-04-07",,,0.00,0.00,0.00
"USC00107402","1949-04-08",,,0.00,0.00,0.00
"USC00107402","1949-04-09",,,0.00,0.00,0.00
"USC00107402","1949-04-10",,,0.00,0.00,0.00
"USC00107402","1949-04-11",,,0.00,0.00,0.00
"USC00107402","1949-04-12",,,0.00,0.00,0.00
"USC00107402","1949-04-13",,,0.00,0.00,0.00
"USC00107402","1949-04-14",,,0.00,0.00,0.00
"USC00107402","1949-04-15",,,0.00,0.00,0.00
"USC00107402","1949-04-16",,,0.00,0.00,0.00
"USC00107402","1949-04-17",,,0.00,0.00,0.00
"USC00107402","1949-04-18",,,0.00,0.00,0.00
"USC00107402","1949-04-19",,,84.00,0.00,0.00
"USC00107402","1949-04-20",,,13.00,0.00,0.00
"USC00107402","1949-04-21",,,0.00,0.00,0.00
"USC00107402","1949-04-22",,,0.00,0.00,0.00
"USC00107402","1949-04-23",,,46.00,0.00,0.00
"USC00107402","1949-04-24",,,0.00,0.00,0.00
"USC00107402","1949-04-25",,,0.00,0.00,0.00
"USC00107402","1949-04-26",,,0.00,0.00,0.00
"USC00107402","1949-04-27",,,0.00,0.00,0.00
"USC00107402","1949-04-28",,,135.00,0.00,0.00
"USC00107402","1949-04-29",,,28.00,0.00,0.00
"USC00107402","1949-04-30",,,0.00,0.00,0.00
"USC00107402","1949-05-01",,,48.00,0.00,0.00
"USC00107402","1949-05-02",,,112.00,0.00,0.00
"USC00107402","1949-05-03",,,0.00,0.00,0.00
"USC00107402","1949-05-04",,,0.00,0.00,0.00
"USC00107402","1949-05-05",,,0.00,0.00,0.00
"USC00107402","1949-05-06",,,0.00,0.00,0.00
"USC00107402","1949-05-07",,,0.00,0.00,0.00
"USC00107402","1949-05-08",,,0.00,0.00,0.00
"USC00107402","1949-05-09",,,0.00,0.00,0.00
"USC00107402","1949-05-10",,,0.00,0.00,0.00
"USC00107402","1949-05-11",,,0.00,0.00,0.00
"USC00107402","1949-05-12",,,0.00,0.00,0.00
"USC00107402","1949-05-13",,,0.00,0.00,0.00
"USC00107402","1949-05-14",,,0.00,0.00,0.00
"USC00107402","1949-05-15",,,0.00,0.00,0.00
"USC00107402","1949-05-16",,,0.00,0.00,0.00
"USC00107402","1949-05-17",,,41.00,0.00,0.00
"USC00107402","1949-05-18",,,0.00,0.00,0.00
"USC00107402","1949-05-19",,,0.00,0.00,0.00
"USC00107402","1949-05-20",,,0.00,0.00,0.00
"USC00107402","1949-05-21",,,41.00,0.00,0.00
"USC00107402","1949-05-22",,,0.00,0.00,0.00
"USC00107402","1949-05-23",,,0.00,0.00,0.00
"USC00107402","1949-05-24",,,0.00,0.00,0.00
"USC00107402","1949-05-25",,,0.00,0.00,0.00
"USC00107402","1949-05-26",,,0.00,0.00,0.00
"USC00107402","1949-05-27",,,0.00,0.00,0.00
"USC00107402","1949-05-28",,,0.00,0.00,0.00
"USC00107402","1949-05-29",,,30.00,0.00,0.00
"USC00107402","1949-05-30",,,30.00,0.00,0.00
"USC00107402","1949-05-31",,,23.00,0.00,0.00
"USC00107402","1949-06-01",,,23.00,0.00,0.00
"USC00107402","1949-06-02",,,0.00,0.00,0.00
"USC00107402","1949-06-03",,,0.00,0.00,0.00
"USC00107402","1949-06-04",,,0.00,0.00,0.00
"USC00107402","1949-06-05",,,0.00,0.00,0.00
"USC00107402","1949-06-06",,,0.00,0.00,0.00
"USC00107402","1949-06-07",,,0.00,0.00,0.00
"USC00107402","1949-06-08",,,0.00,0.00,0.00
"USC00107402","1949-06-09",,,0.00,0.00,0.00
"USC00107402","1949-06-10",,,0.00,0.00,0.00
"USC00107402","1949-06-11",,,0.00,0.00,0.00
"USC00107402","1949-06-12",,,0.00,0.00,0.00
"USC00107402","1949-06-13",,,0.00,0.00,0.00
"USC00107402","1949-06-14",,,0.00,0.00,0.00
"USC00107402","1949-06-15",,,0.00,0.00,0.00
"USC00107402","1949-06-16",,,0.00,0.00,0.00
"USC00107402","1949-06-17",,,0.00,0.00,0.00
"USC00107402","1949-06-18",,,0.00,0.00,0.00
"USC00107402","1949-06-19",,,0.00,0.00,0.00
"USC00107402","1949-06-20",,,8.00,0.00,0.00
"USC00107402","1949-06-21",,,0.00,0.00,0.00
"USC00107402","1949-06-22",,,0.00,0.00,0.00
"USC00107402","1949-06-23",,,0.00,0.00,0.00
"USC00107402","1949-06-24",,,0.00,0.00,0.00
"USC00107402","1949-06-25",,,0.00,0.00,0.00
"USC00107402","1949-06-26",,,0.00,0.00,0.00
"USC00107402","1949-06-27",,,0.00,0.00,0.00
"USC00107402","1949-06-28",,,0.00,0.00,0.00
"USC00107402","1949-06-29",,,,0.00,0.00
"USC00107402","1949-06-30",,,,0.00,0.00
"USC00107402","1949-07-01",,,0.00,0.00,0.00
"USC00107402","1949-07-02",,,0.00,0.00,0.00
"USC00107402","1949-07-03",,,0.00,0.00,0.00
"USC00107402","1949-07-04",,,0.00,0.00,0.00
"USC00107402","1949-07-05",,,0.00,0.00,0.00
"USC00107402","1949-07-06",,,0.00,0.00,0.00
"USC00107402","1949-07-07",,,0.00,0.00,0.00
"USC00107402","1949-07-08",,,0.00,0.00,0.00
"USC00107402","1949-07-09",,,0.00,0.00,0.00
"USC00107402","1949-07-10",,,0.00,0.00,0.00
"USC00107402","1949-07-11",,,0.00,0.00,0.00
"USC00107402","1949-07-12",,,0.00,0.00,0.00
"USC00107402","1949-07-13",,,0.00,0.00,0.00
"USC00107402","1949-07-14",,,0.00,0.00,0.00
"USC00107402","1949-07-15",,,0.00,0.00,0.00
"USC00107402","1949-07-16",,,0.00,0.00,0.00
"USC00107402","1949-07-17",,,0.00,0.00,0.00
"USC00107402","1949-07-18",,,0.00,0.00,0.00
"USC00107402","1949-07-19",,,0.00,0.00,0.00
"USC00107402","1949-07-20",,,0.00,0.00,0.00
"USC00107402","1949-07-21",,,0.00,0.00,0.00
"USC00107402","1949-07-22",,,0.00,0.00,0.00
"USC00107402","1949-07-23",,,0.00,0.00,0.00
"USC00107402","1949-07-24",,,61.00,0.00,0.00
"USC00107402","1949-07-25",,,0.00,0.00,0.00
"USC00107402","1949-07-26",,,3.00,0.00,0.00
"USC00107402","1949-07-27",,,5.00,0.00,0.00
"USC00107402","1949-07-28",,,0.00,0.00,0.00
"USC00107402","1949-07-29",,,0.00,0.00,0.00
"USC00107402","1949-07-30",,,0.00,0.00,0.00
"USC00107402","1949-07-31",,,0.00,0.00,0.00
